Location: Hamlin Beach State Park
(43.3614°N, 77.9586°W)
Time: 14:26:54
(UTC-05:00)

Tiangong 2 - Visible Passes

Search period start: 16 January 2018 00:00
Search period end: 26 January 2018 00:00
Orbit: 384 x 390 km, 42.8° (Epoch: 16 January)

Date Brightness Start Highest point End Pass type
(mag) Time Alt. Az. Time Alt. Az. Time Alt. Az.
16 Jan 3.3 07:05:49 10° SW 07:08:33 26° SSE 07:11:18 10° E visible
17 Jan 3.8 06:07:52 10° SSW 06:10:03 17° SSE 06:12:14 10° ESE visible
18 Jan 4.3 05:11:25 10° SSE 05:11:36 10° SE 05:12:11 10° SE visible
18 Jan 2.3 06:44:49 10° SW 06:47:50 40° SSE 06:50:53 10° E visible
19 Jan 2.9 05:48:16 23° S 05:49:15 27° SSE 05:52:02 10° E visible
20 Jan 4.5 04:52:38 12° ESE 04:52:38 12° ESE 04:52:58 10° ESE visible
20 Jan 1.5 06:24:55 17° WSW 06:27:08 58° SSE 06:30:18 10° E visible
21 Jan 2.5 05:29:09 36° SE 05:29:09 36° SE 05:31:33 10° E visible
21 Jan 1.2 07:01:59 10° W 07:05:11 82° S 07:08:23 10° E visible
22 Jan 1.1 06:05:33 42° WSW 06:06:28 74° S 06:09:39 10° E visible
23 Jan 3.7 05:09:36 22° E 05:09:36 22° E 05:10:54 10° E visible
23 Jan 1.1 06:41:52 14° W 06:44:30 80° S 06:47:42 10° E visible
24 Jan 1.1 05:45:52 80° SE 05:45:52 80° SE 05:48:58 10° E visible
25 Jan 4.5 04:49:51 13° E 04:49:51 13° E 04:50:13 10° E visible
25 Jan 1.2 06:22:06 25° W 06:23:48 68° S 06:26:58 10° ESE visible
